�������C�����ː����j�^�v���󋵏��
Date,Time,Cs137(Bq/L),Cs134(Bq/L),�S��(Bq/L)
2019/02/18,00:00,0.51,ND,17
2019/02/18,00:10,0.53,ND,13
2019/02/18,00:20,0.57,ND,14
2019/02/18,00:30,0.52,ND,14
2019/02/18,00:40,0.47,ND,12
2019/02/18,00:50,0.52,ND,11
2019/02/18,01:00,0.51,ND,11
2019/02/18,01:10,0.47,ND,13
2019/02/18,01:20,0.48,ND,11
2019/02/18,01:30,0.50,ND,13
2019/02/18,01:40,0.47,ND,11
2019/02/18,01:50,0.47,ND,12
2019/02/18,02:00,0.47,ND,14
2019/02/18,02:10,0.41,ND,13
2019/02/18,02:20,0.40,ND,11
2019/02/18,02:30,0.38,ND,13
2019/02/18,02:40,0.37,ND,14
2019/02/18,02:50,0.37,ND,15
2019/02/18,03:00,0.35,ND,14
2019/02/18,03:10,0.40,ND,16
2019/02/18,03:20,0.36,ND,17
2019/02/18,03:30,0.39,ND,16
2019/02/18,03:40,0.38,ND,17
2019/02/18,03:50,0.36,ND,16
2019/02/18,04:00,0.31,ND,18
2019/02/18,04:10,0.30,ND,18
2019/02/18,04:20,0.29,ND,18
2019/02/18,04:30,0.30,ND,17
2019/02/18,04:40,0.32,ND,16
2019/02/18,04:50,0.36,ND,17
2019/02/18,05:00,0.42,ND,13
2019/02/18,05:10,0.44,ND,14
2019/02/18,05:20,0.42,ND,13
2019/02/18,05:30,0.50,ND,12
2019/02/18,05:40,0.47,ND,12
2019/02/18,05:50,0.47,ND,14
2019/02/18,06:00,0.49,ND,15
2019/02/18,06:10,0.50,ND,16
2019/02/18,06:20,0.52,ND,16
2019/02/18,06:30,0.54,ND,17
2019/02/18,06:40,0.60,ND,19
2019/02/18,06:50,0.62,ND,16
2019/02/18,07:00,0.61,ND,16
2019/02/18,07:10,0.69,ND,12
2019/02/18,07:20,0.64,ND,14
2019/02/18,07:30,0.66,ND,14
2019/02/18,07:40,0.68,ND,13
2019/02/18,07:50,0.70,ND,13
2019/02/18,08:00,0.70,ND,13
2019/02/18,08:10,0.73,ND,14
2019/02/18,08:20,0.75,ND,13
2019/02/18,08:30,0.76,ND,13
2019/02/18,08:40,0.76,ND,11
2019/02/18,08:50,0.76,ND,11
2019/02/18,09:00,0.76,ND,10
2019/02/18,09:10,0.75,ND,12
2019/02/18,09:20,0.73,ND,12
2019/02/18,09:30,0.67,ND,15
2019/02/18,09:40,0.59,0.034,15
2019/02/18,09:50,0.61,ND,17
2019/02/18,10:00,0.58,ND,18
2019/02/18,10:10,0.55,ND,18
2019/02/18,10:20,0.54,ND,17
2019/02/18,10:30,0.53,ND,16
2019/02/18,10:40,0.51,ND,16
2019/02/18,10:50,0.51,ND,15
2019/02/18,11:00,0.50,ND,16
2019/02/18,11:10,0.51,ND,15
2019/02/18,11:20,0.53,ND,15
2019/02/18,11:30,0.52,ND,14
2019/02/18,11:40,0.54,ND,16
2019/02/18,11:50,0.54,ND,16
2019/02/18,12:00,0.54,ND,14
2019/02/18,12:10,0.54,ND,13
2019/02/18,12:20,0.50,ND,15
2019/02/18,12:30,0.50,ND,14
2019/02/18,12:40,0.46,ND,16
2019/02/18,12:50,0.44,ND,16
2019/02/18,13:00,0.41,ND,17
2019/02/18,13:10,0.38,ND,18
2019/02/18,13:20,0.38,ND,18
2019/02/18,13:30,0.38,ND,18
2019/02/18,13:40,0.39,ND,15
2019/02/18,13:50,0.41,ND,15
2019/02/18,14:00,0.40,ND,15
2019/02/18,14:10,0.39,ND,16
2019/02/18,14:20,0.37,ND,17
2019/02/18,14:30,0.36,ND,17
2019/02/18,14:40,0.35,ND,18
2019/02/18,14:50,0.32,ND,20
2019/02/18,15:00,0.31,ND,20
2019/02/18,15:10,0.31,ND,20
2019/02/18,15:20,0.31,ND,18
2019/02/18,15:30,0.32,ND,18
2019/02/18,15:40,0.40,ND,16
2019/02/18,15:50,0.37,ND,16
2019/02/18,16:00,0.39,ND,15
2019/02/18,16:10,0.47,ND,15
2019/02/18,16:20,0.51,ND,17
2019/02/18,16:30,0.54,ND,19
2019/02/18,16:40,0.51,ND,20
2019/02/18,16:50,0.52,ND,21
2019/02/18,17:00,0.55,ND,22
2019/02/18,17:10,0.57,ND,22
2019/02/18,17:20,0.58,ND,22
2019/02/18,17:30,0.60,ND,21
2019/02/18,17:40,0.64,ND,21
2019/02/18,17:50,0.69,ND,20
2019/02/18,18:00,0.73,ND,17
2019/02/18,18:10,0.78,ND,15
2019/02/18,18:20,0.85,ND,14
2019/02/18,18:30,0.85,0.025,14
2019/02/18,18:40,0.91,ND,10
2019/02/18,18:50,0.93,ND,11
2019/02/18,19:00,0.93,ND,11
2019/02/18,19:10,0.93,ND,12
2019/02/18,19:20,0.90,0.026,10
2019/02/18,19:30,0.91,0.029,ND
2019/02/18,19:40,0.93,0.034,11
2019/02/18,19:50,1.0,ND,9.0
2019/02/18,20:00,0.95,0.037,11
2019/02/18,20:10,0.97,0.038,13
2019/02/18,20:20,0.97,0.028,14
2019/02/18,20:30,1.0,ND,16
2019/02/18,20:40,0.99,ND,16
2019/02/18,20:50,0.97,ND,15
2019/02/18,21:00,0.96,ND,15
2019/02/18,21:10,0.95,ND,13
2019/02/18,21:20,0.94,ND,12
2019/02/18,21:30,0.98,ND,14
2019/02/18,21:40,0.96,ND,14
2019/02/18,21:50,0.89,ND,15
2019/02/18,22:00,0.90,ND,16
2019/02/18,22:10,0.86,ND,15
2019/02/18,22:20,0.84,ND,19
2019/02/18,22:30,0.76,ND,17
2019/02/18,22:40,0.73,ND,17
2019/02/18,22:50,0.72,ND,14
2019/02/18,23:00,0.68,ND,10
2019/02/18,23:10,0.66,ND,11
2019/02/18,23:20,0.65,ND,ND
2019/02/18,23:30,0.60,ND,8.9
2019/02/18,23:40,0.59,ND,ND
2019/02/18,23:50,0.56,ND,12
